TimeMDT,TemperatureF,Dew PointF,Humidity,Sea Level PressureIn,VisibilityMPH,Wind Direction,Wind SpeedMPH,Gust SpeedMPH,PrecipitationIn,Events,Conditions,WindDirDegrees,DateUTC
12:55 AM,37.0,37.0,100,30.11,6.0,Calm,Calm,-,N/A,,Overcast,0,2013-03-29 06:55:00
1:55 AM,37.0,37.0,100,30.11,6.0,Calm,Calm,-,0.00,,Overcast,0,2013-03-29 07:55:00
2:55 AM,37.0,37.0,100,30.11,7.0,Calm,Calm,-,N/A,,Overcast,0,2013-03-29 08:55:00
3:55 AM,36.0,36.0,100,30.11,7.0,Calm,Calm,-,N/A,,Overcast,0,2013-03-29 09:55:00
4:34 AM,35.6,33.8,93,30.08,1.8,Calm,Calm,-,N/A,,Overcast,0,2013-03-29 10:34:00
4:43 AM,35.6,33.8,93,30.08,2.5,Calm,Calm,-,N/A,,Overcast,0,2013-03-29 10:43:00
4:50 AM,35.6,35.6,100,30.08,5.0,Calm,Calm,-,N/A,,Overcast,0,2013-03-29 10:50:00
4:55 AM,36.0,35.1,97,30.12,5.0,Calm,Calm,-,N/A,,Overcast,0,2013-03-29 10:55:00
5:55 AM,36.0,36.0,100,30.13,10.0,Calm,Calm,-,N/A,,Overcast,0,2013-03-29 11:55:00
6:55 AM,37.0,36.0,96,30.14,10.0,Calm,Calm,-,0.00,Rain,Light Rain,0,2013-03-29 12:55:00
7:55 AM,37.0,36.0,96,30.16,9.0,Calm,Calm,-,0.02,,Overcast,0,2013-03-29 13:55:00
8:55 AM,39.0,37.0,93,30.18,10.0,Calm,Calm,-,N/A,,Overcast,0,2013-03-29 14:55:00
9:39 AM,41.0,37.4,87,30.13,10.0,Calm,Calm,-,N/A,,Mostly Cloudy,0,2013-03-29 15:39:00
9:50 AM,41.0,39.2,93,30.13,10.0,Calm,Calm,-,N/A,,Mostly Cloudy,0,2013-03-29 15:50:00
9:55 AM,41.0,39.0,93,30.19,10.0,Calm,Calm,-,N/A,,Mostly Cloudy,0,2013-03-29 15:55:00
10:55 AM,45.0,39.9,82,30.19,10.0,Calm,Calm,-,N/A,,Overcast,0,2013-03-29 16:55:00
11:55 AM,48.9,43.0,80,30.19,10.0,NNE,4.6,-,N/A,,Mostly Cloudy,30,2013-03-29 17:55:00
12:25 PM,44.6,39.2,81,30.14,4.0,North,8.1,-,0.01,Rain,Heavy Rain,10,2013-03-29 18:25:00
12:55 PM,48.9,41.0,74,30.18,10.0,NE,5.8,-,0.05,,Scattered Clouds,40,2013-03-29 18:55:00
1:55 PM,46.0,37.9,73,30.19,9.0,NE,11.5,18.4,0.00,Rain,Light Rain,40,2013-03-29 19:55:00
2:55 PM,50.0,39.9,68,30.16,10.0,ESE,5.8,-,0.07,,Partly Cloudy,110,2013-03-29 20:55:00
3:55 PM,53.1,37.9,57,30.15,10.0,South,11.5,-,N/A,,Clear,170,2013-03-29 21:55:00
4:55 PM,51.1,37.9,61,30.15,10.0,SSE,10.4,-,0.00,,Mostly Cloudy,150,2013-03-29 22:55:00
5:55 PM,50.0,37.9,63,30.17,10.0,Calm,Calm,-,0.05,,Overcast,0,2013-03-29 23:55:00
6:55 PM,48.9,41.0,74,30.18,10.0,South,9.2,-,N/A,,Mostly Cloudy,170,2013-03-30 00:55:00
7:55 PM,45.0,39.0,80,30.18,10.0,SSE,5.8,-,N/A,,Scattered Clouds,150,2013-03-30 01:55:00
8:55 PM,41.0,36.0,82,30.20,10.0,SSW,3.5,-,N/A,,Partly Cloudy,210,2013-03-30 02:55:00
9:55 PM,39.9,37.0,89,30.21,10.0,Calm,Calm,-,N/A,,Overcast,0,2013-03-30 03:55:00
10:55 PM,36.0,34.0,93,30.22,10.0,NE,5.8,-,N/A,,Partly Cloudy,40,2013-03-30 04:55:00
11:55 PM,33.1,33.1,100,30.23,9.0,Calm,Calm,-,N/A,,Mostly Cloudy,0,2013-03-30 05:55:00